GFSGL_500_spd_336.txt.gz
Wind_Speed
49 50 50 52 51 46 40 40 36 32 31 31 27 25 23 25 27 17 18 17 16 16 18 15 11 10 10 15 12 13 10 9 9 9 9 7 9 12 17 24 26 25 22
45 46 50 53 49 41 37 33 32 28 31 27 23 22 22 19 16 16 17 14 13 15 15 11 9 7 9 9 8 6 7 8 10 5 3 8 14 16 15 17 19 18 18
47 47 50 50 42 38 34 31 27 27 19 15 16 16 16 14 18 17 14 13 12 14 11 9 9 10 9 6 7 7 7 8 10 9 11 17 21 22 20 20 22 20 20
47 45 47 46 39 38 32 28 27 18 14 14 11 15 17 13 14 14 13 11 13 11 11 7 6 5 5 0 2 6 6 5 6 1 13 20 28 24 24 23 21 22 23
45 43 45 42 39 38 29 26 22 18 17 14 14 18 15 14 16 14 13 12 12 12 10 6 2 3 3 6 4 5 8 9 7 15 23 22 22 25 23 22 22 21 21
46 41 43 39 38 36 30 24 18 15 12 11 10 22 17 16 15 13 12 11 11 14 11 5 3 4 6 10 11 11 11 19 23 19 27 29 24 23 24 25 26 24 23
43 39 39 35 36 36 28 23 16 11 6 7 6 14 13 13 15 12 12 13 13 14 11 7 6 6 9 17 16 17 18 24 26 28 24 23 22 23 24 24 26 28 28
40 37 35 33 34 33 25 22 16 15 10 8 10 18 20 18 15 14 13 11 14 14 12 10 10 11 13 20 16 15 21 27 25 23 23 24 27 27 27 28 27 26 25
39 35 33 31 33 32 25 21 17 18 17 12 14 16 16 16 14 13 13 12 13 14 13 12 14 13 13 19 15 14 17 23 25 24 26 28 28 28 26 24 22 20 18
36 35 32 31 32 30 24 20 17 17 18 19 15 16 18 13 13 14 14 15 14 15 15 15 15 14 14 23 22 20 21 24 27 28 27 27 25 23 22 20 19 19 19
37 36 33 31 32 27 23 18 17 18 18 20 18 18 20 14 17 16 15 16 15 15 16 17 17 17 23 25 25 25 26 25 24 24 22 21 20 18 17 17 16 15 14
37 35 31 31 31 27 23 21 19 19 22 21 21 18 22 16 17 16 15 15 16 16 16 19 20 21 28 23 24 27 27 27 26 25 22 20 19 18 16 15 14 12 10
39 37 36 35 31 27 24 24 24 23 29 22 26 20 17 23 18 17 15 16 16 17 18 22 23 24 22 26 27 27 26 24 23 22 19 17 16 15 13 11 9 7 6
41 39 40 39 33 27 23 22 24 26 29 26 29 26 21 19 20 18 17 17 18 18 20 23 26 27 28 28 26 25 25 24 22 20 18 16 15 13 9 8 7 6 5
44 45 46 42 32 24 20 20 25 32 30 28 27 31 24 22 23 19 19 19 19 19 19 22 25 28 26 25 24 23 22 22 20 19 16 14 12 10 8 7 6 7 7
48 50 49 43 28 19 13 15 22 32 32 31 27 30 29 24 19 17 23 22 22 22 23 23 25 27 26 24 23 23 22 21 19 18 16 13 12 10 9 9 9 10 10
50 52 52 42 27 13 4 17 22 29 34 31 26 28 30 25 27 20 22 22 23 23 24 24 24 25 25 23 21 20 19 18 17 17 17 16 15 15 14 14 13 14 15
50 55 55 42 26 5 15 21 30 28 31 27 24 24 32 27 19 21 23 23 24 24 24 24 25 25 25 25 22 21 20 20 19 19 19 19 18 18 17 18 19 19 19
51 52 53 43 23 12 19 31 22 25 26 25 22 21 27 26 24 25 17 22 24 24 25 24 23 24 25 26 26 24 21 20 20 20 21 21 21 21 21 22 23 23 24
47 47 47 42 26 22 27 24 21 18 23 21 21 18 26 22 20 20 22 22 16 17 27 24 23 24 26 28 29 29 27 25 22 22 23 21 22 23 25 26 26 27 28
41 40 39 35 26 23 21 20 15 12 13 19 15 16 20 21 18 20 22 21 22 22 21 24 25 26 28 29 29 30 31 30 28 27 26 27 27 28 29 29 30 31 33
32 34 32 27 20 17 13 11 10 9 10 14 17 17 18 19 21 19 20 22 24 23 23 25 27 29 31 31 31 31 31 31 30 31 31 32 33 33 33 33 34 35 35
26 28 29 24 18 10 6 5 6 5 8 14 15 14 16 21 26 26 25 26 25 24 23 26 30 30 30 32 33 33 34 34 33 33 33 34 36 36 35 35 34 34 35
20 21 22 22 19 15 7 3 5 7 7 10 13 13 15 18 21 23 26 32 36 36 33 30 26 30 31 29 28 31 35 37 34 32 32 33 34 33 32 32 32 31 30
16 15 16 15 16 16 11 8 5 10 13 14 16 17 17 18 20 22 24 24 27 34 36 33 31 30 32 34 32 33 30 30 31 33 33 32 30 31 28 29 28 27 25
18 15 13 12 11 10 10 10 8 7 7 14 19 21 23 22 22 23 24 23 23 28 33 37 36 34 32 32 35 36 38 38 39 38 38 38 36 33 30 31 30 27 30

GFSGL_500_spd_339.txt.gz
Wind_Speed
43 43 44 45 47 48 50 43 40 36 35 30 27 28 28 23 23 24 21 19 17 18 19 20 18 17 13 16 18 16 20 16 11 16 17 12 12 10 17 23 28 27 28
44 43 42 44 45 46 48 40 40 33 29 26 25 21 19 19 21 19 17 17 17 16 17 16 14 12 14 15 14 15 19 12 12 6 7 9 9 6 12 18 25 28 30
46 45 45 44 45 45 45 38 39 32 26 22 16 14 14 18 17 17 14 15 15 15 13 13 13 12 15 12 9 12 6 5 2 6 2 5 10 10 11 16 19 24 25
46 46 45 44 42 44 41 35 37 31 23 21 16 12 11 16 21 16 18 15 15 12 12 12 11 11 11 9 9 8 7 1 6 8 9 15 14 14 16 16 12 15 18
45 45 45 42 40 42 38 34 35 29 22 19 13 13 13 20 16 15 13 14 12 13 14 11 7 8 7 5 3 6 6 2 3 12 20 19 20 22 21 20 19 19 20
43 45 45 40 38 39 36 35 33 25 18 14 14 15 15 16 15 15 14 12 12 14 13 8 7 6 5 3 6 12 6 22 18 25 26 20 20 22 22 23 22 23 20
42 45 43 38 37 37 34 34 30 24 16 12 11 10 21 17 17 16 13 14 15 15 14 9 7 7 7 9 14 19 19 20 22 24 20 21 21 22 21 21 22 23 25
43 46 44 37 36 37 33 33 30 24 17 16 9 8 15 20 14 14 14 15 16 16 13 9 9 9 10 12 12 22 26 24 21 20 23 22 22 22 24 26 27 27 27
44 46 44 36 36 35 32 31 28 23 19 19 15 12 16 16 15 17 14 14 17 15 13 12 12 13 17 18 13 19 22 23 20 23 26 28 29 29 29 29 27 26 25
42 45 42 36 35 33 31 30 26 21 19 20 17 15 23 19 17 17 15 16 15 17 15 15 16 16 21 17 15 16 24 21 24 27 27 28 26 26 25 24 23 23 22
42 46 41 36 33 32 30 29 24 19 19 21 21 17 19 19 17 16 16 16 15 15 15 17 17 16 20 24 17 19 20 25 27 28 27 25 22 21 20 20 20 20 19
44 48 43 39 37 35 32 29 23 19 20 24 22 21 19 19 16 16 15 16 16 15 16 18 17 17 21 25 22 22 25 26 27 27 25 22 19 19 19 19 18 17 15
47 51 45 46 44 37 30 26 22 21 23 29 28 25 20 22 17 15 15 17 17 17 17 20 20 22 23 26 26 27 29 29 27 25 23 20 19 19 18 16 14 12 11
50 53 52 52 44 31 20 18 19 23 27 31 30 28 20 21 18 15 16 17 17 18 21 21 21 24 30 27 29 29 28 27 26 25 23 22 20 18 16 14 12 10 9
52 55 57 53 37 20 10 13 18 22 28 30 31 28 23 21 20 20 18 17 17 19 22 23 24 27 25 28 30 30 28 27 25 23 21 20 19 16 14 12 10 9 8
54 57 59 46 30 13 3 15 20 24 28 32 29 31 22 17 19 19 18 17 17 20 24 25 26 25 27 29 29 28 27 26 24 22 20 18 17 16 14 12 10 9 8
52 57 57 44 26 12 10 16 21 26 26 29 30 31 24 24 21 21 17 18 18 20 23 25 27 28 27 26 25 24 24 23 22 20 18 17 16 15 14 13 12 11 12
49 52 53 41 27 22 21 23 30 27 27 26 28 30 25 23 19 16 21 20 19 20 22 24 26 29 28 25 22 22 22 21 21 21 21 19 18 16 15 15 14 14 15
43 44 45 43 38 30 25 22 26 26 25 21 21 24 24 19 21 17 18 19 19 19 21 21 23 26 27 27 24 21 22 22 22 22 21 21 20 19 19 19 19 19 20
37 36 33 35 33 32 26 21 21 23 17 16 16 18 22 24 13 17 18 16 16 18 19 21 22 23 26 28 28 27 25 23 23 23 24 22 22 22 22 22 22 23 24
30 31 26 23 21 21 21 15 11 15 13 11 11 13 15 19 17 16 18 18 16 19 21 22 24 24 25 26 29 31 31 31 29 28 27 27 25 26 26 26 26 27 28
24 24 23 18 13 10 11 10 9 7 8 12 11 10 11 19 16 17 18 19 23 23 20 17 24 27 27 29 30 30 31 33 34 34 33 33 33 31 30 31 32 33 33
21 19 18 17 12 6 2 1 4 7 10 13 15 19 19 19 20 20 21 20 23 25 25 26 27 28 29 32 33 32 33 34 35 35 35 36 37 36 36 36 36 36 36
21 18 15 13 11 8 5 7 9 9 10 13 17 18 18 19 21 24 29 29 28 28 27 27 28 27 27 29 30 31 33 36 37 37 38 38 37 35 36 37 37 36 35
24 23 20 16 11 9 7 6 8 12 16 16 17 20 22 22 21 23 25 27 30 32 35 37 37 36 35 35 32 35 35 34 35 36 38 40 40 36 32 32 34 34 32
32 29 27 25 21 16 13 12 10 11 13 13 18 22 23 24 26 26 25 26 28 30 30 31 32 36 40 41 39 34 35 36 37 35 30 28 32 35 36 35 33 33 32

GFSGL_500_spd_342.txt.gz
Wind_Speed
41 44 43 44 44 44 44 43 42 41 38 38 30 26 23 26 25 24 26 25 21 16 15 16 18 20 17 16 15 17 20 21 24 25 19 19 19 16 18 19 20 23 29
40 41 43 42 42 40 42 41 39 40 34 36 27 23 22 19 16 18 20 18 16 17 15 15 17 15 14 14 14 17 18 22 16 16 19 14 12 11 11 14 19 24 28
40 40 41 42 41 42 43 39 38 37 32 34 24 21 18 16 16 17 13 12 12 17 14 14 12 12 12 12 15 15 15 12 9 8 9 7 10 6 6 11 17 18 25
39 41 41 41 40 42 41 37 36 34 31 31 22 18 15 13 13 15 15 15 15 14 13 11 9 10 10 12 12 9 7 7 4 6 9 10 8 5 6 9 12 18 23
40 41 41 41 40 43 38 35 35 32 30 27 19 14 10 9 9 15 17 17 15 13 13 9 9 7 9 7 7 5 3 1 2 10 14 16 19 16 16 9 11 15 21
39 40 42 40 41 43 38 34 33 29 28 23 18 12 9 10 15 14 13 13 14 12 12 9 6 7 5 4 4 1 3 6 12 13 12 17 17 18 18 17 16 17 22
40 41 41 42 39 44 37 34 32 28 26 21 16 12 11 15 18 13 15 15 14 11 11 10 7 4 6 8 12 8 8 13 23 12 14 16 17 18 20 21 23 25 27
40 42 42 43 41 43 36 34 31 27 24 19 16 13 7 16 18 14 14 15 13 12 15 11 6 7 10 10 18 14 16 20 13 14 16 19 20 19 21 22 23 22 23
41 44 46 48 45 43 36 33 29 26 21 17 17 15 14 17 22 17 16 15 14 13 16 11 8 11 15 12 12 13 16 16 17 17 19 21 22 23 25 27 27 28 28
44 47 50 48 49 41 36 32 28 25 19 16 18 20 16 16 18 17 14 15 15 15 15 13 12 14 19 13 16 20 17 14 19 23 24 26 27 28 28 26 27 27 27
46 49 53 56 52 46 38 32 29 25 18 17 20 21 20 21 17 17 17 16 15 16 15 14 15 15 18 15 18 19 18 18 24 28 27 26 24 23 23 23 22 21 22
50 55 59 59 56 47 36 29 26 22 18 18 22 23 17 22 20 18 18 16 16 15 14 15 17 18 19 16 13 22 22 26 26 25 26 24 21 20 21 21 21 21 21
52 59 62 62 52 36 20 14 14 17 20 22 27 26 21 23 19 17 17 17 17 15 16 17 18 17 18 22 19 21 26 28 27 24 23 22 22 22 22 21 19 17 16
55 61 64 56 43 24 10 3 12 18 23 25 32 26 25 24 18 18 18 17 17 17 17 18 17 17 20 23 23 25 27 29 27 25 22 21 21 20 19 17 16 14 12
56 59 60 49 39 23 5 10 15 19 23 25 27 29 21 24 23 17 16 16 18 18 18 18 18 20 22 26 26 27 28 28 26 23 20 20 21 19 17 16 14 12 10
54 55 59 51 40 24 14 18 19 22 20 24 27 25 19 20 19 19 14 14 16 17 17 18 19 19 26 26 28 29 28 27 25 22 20 19 18 17 15 13 12 11 10
48 47 52 53 38 27 22 21 20 22 22 29 30 24 19 18 17 15 14 15 16 17 17 18 21 23 25 26 28 28 27 25 24 22 19 18 17 16 14 12 11 11 10
41 38 42 46 39 30 26 24 23 22 27 28 25 18 19 18 12 15 13 13 14 16 16 19 21 22 22 26 27 26 25 24 24 23 21 20 19 18 16 15 14 13 12
34 35 31 34 34 31 28 24 23 20 21 22 19 15 9 13 14 14 12 16 15 16 19 22 23 24 25 25 26 26 26 25 24 23 22 21 20 19 18 17 17 17 16
29 30 25 23 22 20 18 18 15 12 15 13 14 14 10 9 14 8 11 15 16 17 19 22 24 26 28 27 25 24 25 25 24 25 24 23 22 21 21 20 20 20 21
27 25 24 16 12 11 7 7 8 8 10 11 13 15 16 13 9 12 10 11 14 15 19 22 24 26 29 31 32 29 27 26 26 25 26 26 25 25 26 25 25 25 25
22 22 20 18 12 4 2 2 7 10 10 11 13 14 15 17 20 21 18 16 17 15 21 22 24 27 28 29 30 32 33 33 32 31 30 30 29 29 29 30 30 29 29
21 21 20 17 16 11 8 10 11 12 15 17 17 17 16 15 18 20 19 19 20 21 23 22 19 27 29 28 29 31 32 33 34 35 36 36 36 37 37 36 35 35 34
25 23 21 20 17 17 16 12 16 19 19 20 21 23 24 26 26 25 25 25 23 23 25 28 29 28 28 29 31 33 33 33 35 36 37 37 37 38 38 38 38 38 37
33 31 27 24 23 21 20 21 20 18 20 25 26 26 27 28 29 30 31 32 34 33 31 32 32 32 33 34 34 33 33 33 34 35 36 37 37 38 38 39 39 38 36
35 33 29 29 30 29 26 26 27 26 25 23 24 27 31 31 32 33 32 30 30 31 32 35 39 40 40 39 39 40 39 37 35 36 38 37 35 35 36 38 40 39 36

GFSGL_500_spd_345.txt.gz
Wind_Speed
45 41 39 38 40 42 40 39 38 39 38 37 33 30 29 25 25 24 25 22 20 22 16 15 17 19 19 20 20 19 17 18 21 23 26 22 24 23 24 25 27 26 29
42 38 38 40 39 38 38 37 36 38 35 34 27 28 26 24 22 20 19 18 18 18 16 13 13 15 16 18 17 15 15 18 18 16 17 20 18 16 17 18 21 22 23
39 42 45 38 38 38 39 36 38 38 33 31 25 26 22 21 19 18 15 13 14 14 12 13 14 13 14 14 12 12 14 13 11 14 18 16 14 12 11 12 14 16 15
40 44 37 37 39 38 36 37 37 37 31 28 24 24 20 18 14 14 17 12 14 11 13 10 12 12 12 9 8 11 8 8 6 5 4 7 7 6 5 8 14 14 20
30 33 36 37 38 38 38 37 37 36 29 27 22 21 16 11 7 7 13 16 16 11 10 9 10 9 6 3 8 8 7 3 2 7 9 9 9 6 6 8 14 20 24
31 36 36 38 40 41 42 40 38 36 30 27 21 18 15 13 9 12 11 12 13 11 8 7 7 4 3 4 2 2 2 5 8 9 12 13 14 12 15 10 17 17 22
35 37 38 40 43 46 47 43 40 35 29 26 19 16 15 14 14 17 13 12 10 9 10 10 8 4 5 7 7 3 4 15 9 8 9 11 12 13 15 16 17 20 20
38 40 43 47 51 53 52 48 39 32 28 23 16 16 16 13 17 19 14 15 12 11 13 13 9 5 7 12 14 11 18 14 13 13 12 13 15 16 20 25 25 25 22
41 45 50 54 57 59 56 49 39 29 23 19 14 15 19 12 17 19 15 15 14 14 17 12 8 8 14 13 13 15 15 11 14 14 13 14 18 18 20 25 24 25 24
45 50 57 64 66 62 54 40 31 25 20 16 15 19 20 16 20 19 15 16 15 16 17 12 8 9 14 15 13 14 15 15 13 16 17 20 22 22 23 23 27 28 29
49 55 64 68 64 53 39 25 17 18 19 19 17 25 21 17 15 21 19 18 16 17 17 13 10 12 17 15 18 12 11 15 19 23 26 26 26 25 26 27 28 27 27
52 61 67 69 62 43 24 10 6 13 20 21 20 27 17 23 20 19 20 17 17 18 17 14 14 15 17 16 17 18 15 19 23 25 26 26 24 24 24 23 24 24 24
54 60 67 66 56 34 16 8 8 18 19 22 23 29 23 22 19 17 18 16 16 16 17 15 16 17 18 17 21 17 21 24 24 23 23 24 23 22 22 23 24 23 22
52 57 64 61 49 26 16 14 16 19 22 22 27 19 22 23 20 18 17 17 17 17 17 17 17 18 20 18 15 25 26 26 23 21 20 21 22 22 21 20 20 19 18
48 52 59 57 41 29 23 20 20 22 22 25 22 23 23 22 19 15 15 16 17 16 15 15 17 19 19 21 21 26 28 27 24 21 19 20 20 20 18 17 16 15 14
42 45 49 51 38 30 26 23 23 23 28 24 19 21 24 19 15 14 13 14 15 16 15 15 17 17 19 24 25 28 29 28 24 21 19 18 18 17 16 14 12 11 9
35 36 37 40 40 34 30 29 30 26 21 20 17 12 19 17 11 10 12 13 14 15 15 15 16 17 19 25 26 28 29 28 25 22 20 19 18 17 15 13 12 11 9
29 30 28 28 27 29 27 24 21 19 18 18 16 15 13 11 10 10 9 10 12 14 15 15 16 17 22 23 25 26 28 29 28 25 22 20 19 18 16 14 12 11 10
24 24 21 19 18 15 13 12 12 15 13 9 8 7 8 7 8 10 8 8 11 14 16 16 18 18 24 23 26 28 29 28 27 25 24 22 20 18 16 15 14 13 13
20 20 18 13 10 7 4 4 3 10 9 10 7 7 4 5 9 9 5 9 13 15 16 18 20 20 22 24 27 29 28 27 27 27 25 23 22 21 20 20 19 18 18
19 17 16 15 9 8 5 5 5 7 13 12 13 13 13 10 11 13 10 10 11 14 17 19 21 23 25 25 29 29 29 29 29 28 27 26 24 23 23 22 22 22 22
25 20 16 14 13 10 11 13 12 15 15 16 17 18 19 19 18 13 14 12 13 17 18 20 23 25 27 30 31 30 30 29 29 29 29 28 27 26 26 26 26 26 26
28 26 23 20 19 18 15 15 19 21 21 22 23 22 21 20 21 22 24 25 22 22 20 22 25 28 29 31 33 35 35 34 33 32 32 31 31 31 31 31 31 31 31
32 28 25 24 23 24 26 23 21 21 24 28 27 27 29 29 28 26 23 24 25 27 27 26 27 29 32 32 34 35 36 38 39 39 39 38 39 38 38 38 38 37 37
36 36 32 30 27 25 27 29 31 29 28 28 29 32 32 30 31 34 35 33 33 33 32 30 30 32 35 32 31 37 38 38 38 38 38 38 38 39 39 39 39 38 38
41 39 39 37 35 34 29 29 32 34 37 36 33 33 32 33 34 35 34 34 37 39 40 39 38 37 36 37 38 38 39 39 38 38 39 39 39 38 38 38 39 38 38